Weather History for KHSP - December, 2010

Change the Weather History Date:

Sunday, December 12, 2010

  Actual Average Record
Temperature  
Mean Temperature 30 °F -  
Max Temperature 37 °F 37 °F 57 °F (2007)
Min Temperature 23 °F 24 °F 12 °F (2013)
Degree Days  
Heating Degree Days 34    
Moisture  
Dew Point 32 °F    
Average Humidity 100    
Maximum Humidity 100    
Minimum Humidity 100    
Precipitation  
Precipitation 0.00 in - - ()
Sea Level Pressure  
Sea Level Pressure 29.44 in    
Wind  
Wind Speed 10 mph (SSW)    
Max Wind Speed 15 mph    
Max Gust Speed 22 mph    
Visibility 1 miles    
Events      
Averages and records for this station are not official NWS values.
T = Trace of Precipitation, MM = Missing Value Source: NWS Daily Summary

Daily Weather History Graph

Daily Weather History Graph

Search for Another Location

Airport or City:

Trip Planner

Search our weather history database for the weather conditions in past years. The results will help you decide how hot, cold, wet, or windy it might be!

Date:

Astronomy

Dec. 12, 2010 Rise Set
Actual Time 7:25 AM EST 5:00 PM EST
Civil Twilight 6:56 AM EST 5:29 PM EST
Nautical Twilight 6:23 AM EST 6:02 PM EST
Astronomical Twilight 5:51 AM EST 6:34 PM EST
Moon 11:46 AM EST (12/12) 11:54 PM EST (12/12)
Length of Visible Light 10h 33m
Length of Day
9h 34m
Waxing Crescent, 42% of the Moon is Illuminated
Dec 12
Waxing Crescent
Dec 13
First Quarter
Dec 21
Full
Dec 27
Last Quarter
Jan 4
New

Hourly Weather History & Observations

Time (EST) Temp. Windchill Dew Point Humidity Pressure Visibility Wind Dir Wind Speed Gust Speed Precip Events Conditions
12:00 AM 33.8 °F 27.7 °F 33.8 °F 100% 29.82 in 0.2 mi SE 6.9 mph - N/A   Overcast
12:20 AM 33.8 °F 28.6 °F 33.8 °F 100% 29.81 in 0.2 mi ESE 5.8 mph - N/A   Overcast
12:40 AM 32.0 °F 24.8 °F - N/A% 29.79 in 0.2 mi SE 8.1 mph - N/A   Overcast
1:00 AM 33.8 °F 27.0 °F 33.8 °F 100% 29.78 in 0.2 mi SSE 8.1 mph - N/A   Overcast
1:20 AM 33.8 °F 26.4 °F 33.8 °F 100% 29.76 in 0.2 mi SE 9.2 mph - N/A   Overcast
1:40 AM 33.8 °F 29.6 °F 33.8 °F 100% 29.75 in 0.2 mi SSE 4.6 mph - N/A   Overcast
2:00 AM 33.8 °F 27.0 °F 33.8 °F 100% 29.74 in 0.2 mi SSE 8.1 mph - N/A   Overcast
2:20 AM 33.8 °F 27.0 °F 33.8 °F 100% 29.71 in 0.2 mi SE 8.1 mph - N/A   Overcast
2:40 AM 33.8 °F 25.3 °F 33.8 °F 100% 29.68 in 0.2 mi SE 11.5 mph - N/A   Overcast
3:00 AM 35.6 °F 28.0 °F 35.6 °F 100% 29.66 in 0.2 mi SE 10.4 mph - N/A   Overcast
3:20 AM 35.6 °F 28.6 °F 35.6 °F 100% 29.66 in 0.2 mi SE 9.2 mph 19.6 mph N/A   Overcast
3:40 AM 35.6 °F 28.0 °F 35.6 °F 100% 29.66 in 0.2 mi SSE 10.4 mph 16.1 mph N/A   Overcast
4:00 AM 35.6 °F 29.2 °F 35.6 °F 100% 29.63 in 0.2 mi SSE 8.1 mph - N/A   Overcast
4:20 AM 35.6 °F 27.1 °F 35.6 °F 100% 29.59 in 0.2 mi SE 12.7 mph - N/A   Overcast
4:40 AM 35.6 °F 26.6 °F 35.6 °F 100% 29.56 in 0.2 mi SE 13.8 mph 18.4 mph N/A   Overcast
5:00 AM 37.4 °F 29.3 °F 37.4 °F 100% 29.55 in 0.2 mi SE 12.7 mph 19.6 mph N/A   Overcast
5:20 AM 37.4 °F 30.8 °F 37.4 °F 100% 29.55 in 0.2 mi SE 9.2 mph - N/A   Overcast
5:40 AM 37.4 °F 30.8 °F 37.4 °F 100% 29.57 in 0.2 mi South 9.2 mph - N/A   Overcast
6:20 AM 35.6 °F 29.2 °F 35.6 °F 100% 29.55 in 0.2 mi South 8.1 mph - N/A   Overcast
6:40 AM 35.6 °F 29.2 °F 35.6 °F 100% 29.54 in 0.2 mi South 8.1 mph 16.1 mph N/A   Overcast
7:00 AM 33.8 °F 25.8 °F 33.8 °F 100% 29.52 in 0.2 mi South 10.4 mph - N/A   Overcast
7:20 AM 33.8 °F 27.0 °F 33.8 °F 100% 29.52 in 0.2 mi South 8.1 mph - N/A   Overcast
7:40 AM 33.8 °F 25.8 °F 33.8 °F 100% 29.51 in 0.2 mi South 10.4 mph 16.1 mph N/A   Overcast
8:00 AM 33.8 °F 25.3 °F 33.8 °F 100% 29.48 in 0.2 mi SE 11.5 mph 20.7 mph N/A   Overcast
8:20 AM 32.0 °F 24.2 °F 32.0 °F 100% 29.47 in 0.2 mi SSE 9.2 mph 17.3 mph N/A   Overcast
8:40 AM 33.8 °F 24.8 °F 33.8 °F 100% 29.45 in 0.2 mi SSE 12.7 mph 21.9 mph N/A   Overcast
9:00 AM 32.0 °F 23.6 °F 32.0 °F 100% 29.45 in 0.2 mi SSE 10.4 mph 18.4 mph N/A   Overcast
9:20 AM 32.0 °F 21.6 °F 32.0 °F 100% 29.44 in 0.2 mi SSE 15.0 mph - N/A   Overcast
9:40 AM 32.0 °F 23.0 °F 32.0 °F 100% 29.42 in 0.2 mi SSE 11.5 mph 17.3 mph N/A   Overcast
10:20 AM 32.0 °F 22.1 °F 32.0 °F 100% 29.42 in 0.2 mi South 13.8 mph 20.7 mph N/A   Overcast
10:40 AM 30.2 °F 21.3 °F 30.2 °F 100% 29.41 in 0.2 mi South 10.4 mph - N/A   Overcast
11:00 AM 30.2 °F 20.8 °F 30.2 °F 100% 29.40 in 0.2 mi South 11.5 mph 17.3 mph N/A   Overcast
11:20 AM 32.0 °F 24.2 °F 32.0 °F 100% 29.39 in 0.2 mi SSW 9.2 mph - N/A   Overcast
11:40 AM 33.8 °F 25.3 °F 33.8 °F 100% 29.37 in 0.2 mi SSW 11.5 mph 18.4 mph N/A   Overcast
12:00 PM 33.8 °F 23.9 °F 33.8 °F 100% 29.37 in 0.2 mi SW 15.0 mph 18.4 mph N/A   Overcast
12:20 PM 33.8 °F 24.3 °F 33.8 °F 100% 29.36 in 0.5 mi SW 13.8 mph 19.6 mph N/A   Overcast
12:40 PM 33.8 °F 23.9 °F - N/A% 29.35 in 3.0 mi SW 15.0 mph 20.7 mph N/A   Overcast
1:00 PM 33.8 °F 24.8 °F - N/A% 29.32 in 0.2 mi WSW 12.7 mph - N/A   Overcast
1:20 PM 33.8 °F 25.8 °F 33.8 °F 100% 29.32 in 0.2 mi WSW 10.4 mph - N/A   Overcast
1:40 PM 33.8 °F 26.4 °F 33.8 °F 100% 29.31 in 0.2 mi WSW 9.2 mph - N/A   Overcast
2:00 PM 33.8 °F 25.3 °F 33.8 °F 100% 29.30 in 0.2 mi WSW 11.5 mph - N/A   Overcast
2:20 PM 33.8 °F 25.8 °F 33.8 °F 100% 29.29 in 0.2 mi West 10.4 mph 17.3 mph N/A   Overcast
2:40 PM 33.8 °F 25.3 °F 33.8 °F 100% 29.28 in 0.2 mi West 11.5 mph - N/A   Overcast
3:00 PM 33.8 °F 24.8 °F 33.8 °F 100% 29.27 in 0.2 mi West 12.7 mph 17.3 mph N/A   Overcast
3:20 PM 33.8 °F 25.3 °F 33.8 °F 100% 29.27 in 0.2 mi West 11.5 mph 16.1 mph N/A   Overcast
3:40 PM 33.8 °F 25.3 °F 33.8 °F 100% 29.26 in 0.2 mi West 11.5 mph - N/A   Overcast
4:00 PM 32.0 °F 23.0 °F - N/A% 29.27 in 0.2 mi West 11.5 mph - N/A   Overcast
4:20 PM 32.0 °F 24.2 °F - N/A% 29.27 in 0.2 mi West 9.2 mph - N/A   Overcast
4:40 PM 32.0 °F 23.6 °F 32.0 °F 100% 29.27 in 0.2 mi WNW 10.4 mph - N/A   Overcast
5:00 PM 32.0 °F 24.2 °F 32.0 °F 100% 29.27 in 0.2 mi WNW 9.2 mph - N/A   Overcast
5:20 PM 28.4 °F 18.5 °F - N/A% 29.28 in 0.2 mi NNW 11.5 mph - N/A   Overcast
5:40 PM 28.4 °F 18.5 °F 28.4 °F 100% 29.29 in 0.2 mi WNW 11.5 mph - N/A   Overcast
6:00 PM 28.4 °F 18.5 °F 28.4 °F 100% 29.30 in 2.5 mi NW 11.5 mph - N/A   Overcast
6:20 PM 28.4 °F 18.5 °F 28.4 °F 100% 29.30 in 0.5 mi WNW 11.5 mph - N/A   Overcast
6:40 PM 28.4 °F 17.5 °F 28.4 °F 100% 29.30 in 0.2 mi NW 13.8 mph - N/A   Overcast
7:00 PM 26.6 °F 16.8 °F 26.6 °F 100% 29.29 in 0.2 mi NW 10.4 mph - N/A   Overcast
7:20 PM 26.6 °F 15.2 °F 26.6 °F 100% 29.29 in 10.0 mi NW 13.8 mph 18.4 mph N/A   Overcast
7:40 PM 26.6 °F 14.7 °F 26.6 °F 100% 29.28 in 10.0 mi NW 15.0 mph - N/A   Overcast
8:00 PM 24.8 °F 12.9 °F 24.8 °F 100% 29.29 in 7.0 mi NW 13.8 mph 18.4 mph N/A   Overcast
8:20 PM 24.8 °F 12.4 °F 24.8 °F 100% 29.28 in 2.5 mi NW 15.0 mph - N/A   Overcast
8:40 PM 24.8 °F 12.9 °F 24.8 °F 100% 29.27 in 0.2 mi WNW 13.8 mph 18.4 mph N/A   Overcast
9:00 PM 24.8 °F 13.4 °F 24.8 °F 100% 29.27 in 1.0 mi NW 12.7 mph 21.9 mph N/A   Overcast
9:20 PM 24.8 °F 12.4 °F 24.8 °F 100% 29.26 in 2.5 mi NW 15.0 mph - N/A   Overcast
9:40 PM 23.0 °F 10.1 °F 23.0 °F 100% 29.26 in 5.0 mi NW 15.0 mph 21.9 mph N/A   Overcast
10:00 PM 21.2 °F 7.3 °F 21.2 °F 100% 29.25 in 5.0 mi NW 16.1 mph 20.7 mph N/A   Overcast
10:20 PM 21.2 °F 5.6 °F 21.2 °F 100% 29.26 in 2.0 mi West 20.7 mph 25.3 mph N/A   Overcast
10:40 PM 19.4 °F 2.8 °F 19.4 °F 100% 29.26 in 1.8 mi West 21.9 mph 27.6 mph N/A   Overcast